BAW4425 KIAH-EGLL

Flight info

Callsign BAW4425
Flight time N/A
Altitude 37000
Route LURIC8 LURIC DCT ELD DCT KM21I DCT KM30K DCT KM39M DCT KI48O DCT KC69U DCT KB78Y/N0468F390 DCT KB81A DCT CABCI DCT TAFFY DCT YAY DCT RIKAL/M083F400 DCT 53N050W 54N040W 54N030W 54N020W DCT DOGAL DCT BEXET/N0479F410 DCT BOFUM Q37 MALUD Q38 NUGRA NUGRA1H
Aircraft B772/H-SDE2E3FGHIJ5LORVWXY/LB1D1

Departure

Time 2025-09-06 05:30
Airport George Bush Intercontinental Airport (KIAH)

Arrival

Time N/A
Airport London Heathrow Airport (EGLL)
Time Latitude Longitude Altitude Speed Heading
2025-09-06 04:54 29.98841 -95.33426 112 ft 0 kts 180°
2025-09-06 05:07 29.98856 -95.33425 109 ft 3 kts 197°
2025-09-06 05:08 29.98888 -95.33398 111 ft 3 kts 243°
2025-09-06 05:08 29.98893 -95.33353 109 ft 3 kts 289°
2025-09-06 05:09 29.98873 -95.33320 110 ft 1 kts 324°
2025-09-06 05:11 29.98881 -95.33326 109 ft 2 kts 325°
2025-09-06 05:11 29.98897 -95.33339 109 ft 0 kts 325°
2025-09-06 05:13 29.98899 -95.33340 108 ft 2 kts 325°
2025-09-06 05:14 29.98975 -95.33401 109 ft 10 kts 326°
2025-09-06 05:15 29.99081 -95.33512 110 ft 12 kts 290°
2025-09-06 05:15 29.99089 -95.33797 109 ft 19 kts 270°
2025-09-06 05:16 29.99087 -95.34107 109 ft 19 kts 269°
2025-09-06 05:16 29.99085 -95.34416 109 ft 19 kts 270°
2025-09-06 05:17 29.99086 -95.34882 109 ft 19 kts 271°
2025-09-06 05:17 29.99090 -95.35152 109 ft 16 kts 269°
2025-09-06 05:18 29.99091 -95.35409 109 ft 2 kts 270°
2025-09-06 05:19 29.98954 -95.35483 111 ft 17 kts 181°
2025-09-06 05:19 29.98796 -95.35570 111 ft 13 kts 240°
2025-09-06 05:20 29.98723 -95.35716 110 ft 7 kts 221°
2025-09-06 05:20 29.98673 -95.35712 110 ft 10 kts 162°
2025-09-06 05:20 29.98636 -95.35692 109 ft 0 kts 153°
2025-09-06 05:21 29.98607 -95.35675 109 ft 20 kts 152°
2025-09-06 05:21 29.97313 -95.34885 110 ft 131 kts 152°
2025-09-06 05:22 29.96752 -95.34426 111 ft 11 kts 65°
2025-09-06 05:23 29.96907 -95.34422 108 ft 15 kts 332°
2025-09-06 05:23 29.97150 -95.34570 109 ft 26 kts 330°
2025-09-06 05:24 29.97460 -95.34759 110 ft 25 kts 333°
2025-09-06 05:24 29.97611 -95.34852 110 ft 25 kts 332°
2025-09-06 05:24 29.97913 -95.35036 109 ft 25 kts 332°
2025-09-06 05:25 29.98232 -95.35234 110 ft 27 kts 331°
2025-09-06 05:25 29.98565 -95.35434 110 ft 26 kts 333°
2025-09-06 05:26 29.98828 -95.35667 109 ft 0 kts 252°
2025-09-06 05:27 29.98815 -95.35699 111 ft 14 kts 242°
2025-09-06 05:27 29.98773 -95.35756 111 ft 0 kts 220°
2025-09-06 05:27 29.98692 -95.35726 110 ft 0 kts 153°
2025-09-06 05:28 29.97848 -95.35213 111 ft 156 kts 152°
2025-09-06 05:29 29.95652 -95.33827 1746 ft 177 kts 152°
2025-09-06 05:29 29.93202 -95.32190 2816 ft 230 kts 149°
2025-09-06 05:30 29.88838 -95.28859 5467 ft 264 kts 139°
2025-09-06 05:31 29.86241 -95.25812 7539 ft 274 kts 129°
2025-09-06 05:31 29.85040 -95.24047 8497 ft 280 kts 127°
2025-09-06 05:31 29.83236 -95.20048 10266 ft 296 kts 95°
2025-09-06 05:32 29.84892 -95.15370 10896 ft 357 kts 43°
2025-09-06 05:32 29.89463 -95.12690 12382 ft 379 kts
2025-09-06 05:33 29.94478 -95.14017 14159 ft 380 kts 324°
2025-09-06 05:33 29.98681 -95.17901 15760 ft 390 kts 319°
2025-09-06 05:34 30.05452 -95.23248 18228 ft 404 kts 336°
2025-09-06 05:34 30.08252 -95.23880 18818 ft 420 kts 355°
2025-09-06 05:35 30.13946 -95.22079 20219 ft 441 kts 29°
2025-09-06 05:35 30.19009 -95.17859 21436 ft 455 kts 33°
2025-09-06 05:36 30.26895 -95.11444 23386 ft 469 kts 31°
2025-09-06 05:36 30.29598 -95.09289 23945 ft 473 kts 31°
2025-09-06 05:39 30.54919 -94.89524 28592 ft 503 kts 29°
2025-09-06 05:40 30.75801 -94.73451 31596 ft 517 kts 29°
2025-09-06 05:42 30.99242 -94.55312 35688 ft 497 kts 28°
2025-09-06 05:44 31.22097 -94.37546 37011 ft 489 kts 27°
2025-09-06 05:46 31.44721 -94.19870 37021 ft 492 kts 28°
2025-09-06 05:49 31.70462 -93.99618 37014 ft 499 kts 28°